"Pseudo-MPEC" for C0R5PX2

Created 2019 Jun 19 18:07:15 UT using Find_Orb

Click here for an explanation of pseudo-MPECs

 
 Astrometry: 
     C0R5PX2  C2019 06 07.34703 16 34 18.82 -12 45 27.8    ~67BM 19.5 GVNEOCPG96
     C0R5PX2  C2019 06 07.35225 16 34 18.58 -12 44 51.1    ~67BM 20.2 GVNEOCPG96
     C0R5PX2  C2019 06 07.35748 16 34 18.24 -12 44 15.3    ~67BM 19.9 GVNEOCPG96
     C0R5PX2  C2019 06 07.36271 16 34 17.91 -12 43 38.7    ~67BM 20.1 GVNEOCPG96
     C0R5PX2 KC2019 06 07WmLLnK1Y3l;:S+Aekt$Kyjg[?*h:VaKIgxql/PZUltbQj)\#t-VeZ84
     C0R5PX2 KC2019 06 07N7^XYS4A$7b.Ue95@_c(6T1,jhQDE[^^;7M6odRrMa]fPX%n:;HGZ84
     C0R5PX2 KC2019 06 07ln'AstrometryC9'INebCVi3KSfwredacted;ZM5F$m%r-@t3A@\Z84
     C0R5PX2 KC2019 06 08#cO*g#o)!%rhP%T(`\=`:0ffq,:_(4A+wp5M^G(=?qGE%O_;lE/1104
     C0R5PX2 KC2019 06 08ONri3T#._UXNM+fuh)n9PmR4rRCO=sWiDCtR\)0dVoP+73PGoDT)104
     C0R5PX2 KC2019 06 08p,y#yVmpjj,Msp7O@B[WU5.s6#qj`hPfAT@R!6,kZmSc0\)Rqa-`104
     C0R5PX2 |C2019 06 08o[wLRg2tRLLHMTrvG7)e!@nSkU:R$uOPNpHhonufA8u:4v+ra,8V807
     C0R5PX2 |C2019 06 089]eS5jO@W57YW,xL[Gs9;bj4Q,Lay/M-yq6=km,(Lh$jJC7C6-_-807
     C0R5PX2 |C2019 06 08s2:ysmcFb=6Y/]@70^ZhN*e?'Lg\Z`nN:BA#hv?`2xIp:ZtH*$4J807
     C0R5PX2  C2019 06 08.25120 16 33 42.09 -11 05 07.3    ~6937 20.9 GVNEOCPI52
     C0R5PX2  C2019 06 08.25161 16 33 42.09 -11 05 04.4    ~6937 19.8 GVNEOCPI52
     C0R5PX2  C2019 06 08.25203 16 33 42.06 -11 05 01.2    ~6937 20.6 GVNEOCPI52
     C0R5PX2 KC2019 06 08`jvM0gO^'qZ^9V#yBVlt=LQ7O[p=_0-6]3F$b_`3?DMOqX)d,Fj7734
     C0R5PX2 KC2019 06 087?Ma\2qC.1#3MbMa[K40M:[_CyFCj]5c0vwHwyV.i\pCyB1coKE/734
     C0R5PX2 KC2019 06 08IDUlh8'R#clickX,T)-\80N(vK(r\EhajQdi,1Wxlc!Jo/PS=gE'734
     C0R5PX2  C2019 06 08Gshere/wDkpZ78u'i`Juq(scEO4;^H!_m\,fl*d]TDNl?0[YZVP)F51
     C0R5PX2  C2019 06 08:b2(WqF%L`r/l8UPl*Avs+1SeA]\KwD]Y!.Z5fRD2DS=EG@xMKcZF51
     C0R5PX2  C2019 06 08k+MVoqmOLV/,kO8i;6BX6AZjb2=guRXJ+6?V^H\:WB+,4tHJpZ`7F51
     C0R5PX2  C2019 06 08:PSLHATy\$_sCo1l,K#N0dc*fgTF(ka2EgZfC4?lXS6(d\4i_yIYF51
     C0R5PX2  C2019 06 08]iG76O(Qa'rvGdgBWyuG'9]o(B2[Fki8/%AkV]s)Y@EwaA.;pUv/F51
     C0R5PX2  C2019 06 088lk5$L5ID$S^]xn@qwSlBfor+-=9H3oEvakAPIm?rkxhx\LwPFH(F51
     C0R5PX2  C2019 06 08T:$_Bx$/GI,cnM9=u3jf1X?m^w_d%9Y*R5P95R=A;1I.)DAsdR+)F51
     C0R5PX2 KC2019 06 08yDyQ)0vQexplanationnNftX%d0B_KT.47,UdqboT;m.FvLWr#KiL01
     C0R5PX2 pC2019 06 08FYHdikIoyX)6d85TIDJ=Rpm$Mf[yf$yyLci=f^pDA,c3`Rh0vl'NL01
     C0R5PX2 KC2019 06 08bt,j:gC[EBZr_IiKa`J\Fgp-?8q*xDFLQ6grYHU(6nR%@m?DPf1FL01
     C0R5PX2  C2019 06 09.26100 16 33 02.39 -09 18 31.1    ~696q 20.1 GVNEOCPI52
     C0R5PX2  C2019 06 09.26225 16 33 02.33 -09 18 24.9    ~696q 20.5 GVNEOCPI52
     C0R5PX2  C2019 06 09.26510 16 33 02.20 -09 18 07.2    ~696q 20.4 GVNEOCPI52
     C0R5PX2  C2019 06 09.26634 16 33 02.12 -09 17 59.1    ~696q 20.7 GVNEOCPI52
     C0R5PX2  C2019 06 11.33696 16 31 51.12 -05 57 14.5    ~6B8b       VNEOCPI52
     C0R5PX2  C2019 06 11.34141 16 31 50.92 -05 56 49.9    ~6B8b       VNEOCPI52
     C0R5PX2  C2019 06 12.24396 16 31 26.40 -04 36 37.6    ~6C6q       VNEOCPI52
     C0R5PX2  C2019 06 12.24904 16 31 26.20 -04 36 10.1    ~6C6q       VNEOCPI52
     C0R5PX2  C2019 06 13.25459 16 31 00.19 -03 11 45.9    ~6D6q       VNEOCPI52
     C0R5PX2  C2019 06 13.25834 16 31 00.18 -03 11 30.1    ~6D6q 20.2 GVNEOCPI52
     C0R5PX2  C2019 06 13.26208 16 30 59.96 -03 11 09.6    ~6D6q 21.0 GVNEOCPI52
     C0R5PX2  C2019 06 13.26583 16 30 59.76 -03 10 52.0    ~6D6q 21.9 GVNEOCPI52

Station data:
(104) San Marcello Pistoiese  (N44.063037 E10.804200)  Italy. 0.40-m f/5
   reflector.
(734) Farpoint Observatory, Eskridge  (N38.890107 W96.001400)  US/Kansas.
   Observer G. Hug. 0.69-m reflector + CCD.
(807) Cerro Tololo Observatory, La Serena  (S30.169136 W70.805900)  Chile.
(F51) Pan-STARRS 1, Haleakala  (N20.707235 W156.255910)  US/Hawaii.
   Observers N. Primak, A. Schultz, S. Watters, J. Thiel, T. Goggia. Measurer
   PS1 Science Consortium. 1.8-m Ritchey-Chrétien + CCD.
(G96) Mt. Lemmon Survey  (N32.442754 W110.788720)  US/Arizona.  Observers T.
   A. Pruyne, B. M. Africano, E. J. Christensen, G. A. Farneth, D. C. Fuls,
   A. R. Gibbs, A. D. Grauer, H. Groeller, J. A. Johnson, R. A. Kowalski, S.
   M. Larson, G. J. Leonard, R. L. Seaman, F. C. Shelly. 1.5-m reflector +
   10K CCD.
(I52) Steward Observatory, Mt. Lemmon Station  (N32.442547 W110.788920)
   US/Arizona.  Observers T. A. Pruyne, B. M. Africano, E. J. Christensen, G.
   A. Farneth, D. C. Fuls, A. R. Gibbs, A. D. Grauer, H. Groeller, J. A.
   Johnson, R. A. Kowalski, S. M. Larson, G. J. Leonard, R. L. Seaman, F. C.
   Shelly. 1.0-m reflector + CCD.
(L01) Višnjan Observatory, Tičan  (N45.290900 E13.749300)  Croatia.
   Observers K. Korlević, E. Pettarin. Measurer E. Pettarin. 1.0-m f/2.9
   reflector + CCD.
(Z84) Calar Alto-Schmidt  (N37.224049 W2.548210)  Spain.

Orbital elements:  C0R5PX2
   Perihelion 2019 Mar 25.447941 +/- 0.203 TT = 10:45:02 (JD 2458567.947941)
Epoch 2019 Jun 13.0 TT = JDT 2458647.5   Earth MOID: 0.1429   Ma: 0.0931
M  51.19702095 +/- 0.34             (J2000 ecliptic)          AutoNEOCP
n   0.64356625 +/- 0.00265          Peri.  295.81886 +/- 0.20
a   1.32863964 +/- 0.00365          Node   251.69109 +/- 0.00039
e   0.2027999 +/- 0.00172           Incl.   21.54616 +/- 0.11
P   1.53/559.37d           H 23.6   G  0.15   U  8.8  
q 1.05919153 +/- 0.000626    Q 1.59808775 +/- 0.00669
From 41 observations 2019 June 7-13; mean residual 0".52
Residuals in arcseconds: 
190607 G96  .65-  1.5-    190608 I52  .21+  .11-    190608 L01  .01-  .19-    
190607 G96  .53+  .49-    190608 I52  .13+  .36+    190609 I52  .32-  .94+    
190607 G96  .25+  .43-    190608 734  .30-  .37+    190609 I52  .19-  .56-    
190607 G96  .08+  .43+    190608 734  .23+  .32-    190609 I52  .19+  .40-    
190607 Z84  .00   .56+    190608 734  .15+  .79+    190609 I52  .01+  .06+    
190607 Z84  .05-  .10+    190608 F51  .23+  .15-    190611 I52  .65+  .01-    
190607 Z84  .09-  .68+    190608 F51  .19+  .12-    190611 I52  .69+  .17+    
190608 104  .60+  .72+    190608 F51  .15+  .04-    190612 I52  .77-  1.0-    
190608 104  .04-  .37+    190608 F51  .25+  .14-    190612 I52  .48-  .14+    
190608 104  .00   .15+    190608 F51  .12+  .10-    190613 I52  .79-  1.1+    
190608 807  1.1-  .40+    190608 F51  .20+  .26-    190613 I52  1.3+  1.4-    
190608 807  .48-  .54+    190608 F51  .16+  .15-    190613 I52  .23+  .83+    
190608 807  .31+  .26-    190608 L01  .56-  .64-    190613 I52  .53-  .13+    
190608 I52  .15-  .35-    190608 L01  .08+  .82-    

Ephemerides (geocentric):
Date (UTC) HH   RA              Dec         delta   r     elong  mag " sig PA
---- -- -- --  -------------   -----------  ------ ------ -----  --- ---- ---
2019 06 19 18  16 29 23.357   +04 01 26.00  .23672 1.2198 146.1 22.1 1.78 127
2019 06 19 19  16 29 23.100   +04 03 39.37  .23698 1.2199 146.1 22.1 1.80 127
2019 06 19 20  16 29 22.847   +04 05 52.35  .23724 1.2200 146.0 22.1 1.82 127
2019 06 19 21  16 29 22.599   +04 08 04.96  .23750 1.2202 145.9 22.1 1.84 127
2019 06 19 22  16 29 22.354   +04 10 17.20  .23776 1.2203 145.9 22.1 1.86 128
2019 06 19 23  16 29 22.114   +04 12 29.07  .23802 1.2204 145.8 22.2 1.88 128
2019 06 20 00  16 29 21.879   +04 14 40.56  .23828 1.2205 145.8 22.2 1.90 128
2019 06 20 01  16 29 21.648   +04 16 51.69  .23854 1.2207 145.7 22.2 1.92 128
2019 06 20 02  16 29 21.421   +04 19 02.44  .23880 1.2208 145.7 22.2 1.94 128
2019 06 20 03  16 29 21.198   +04 21 12.82  .23906 1.2209 145.6 22.2 1.96 128
2019 06 20 04  16 29 20.980   +04 23 22.84  .23933 1.2210 145.6 22.2 1.98 128
2019 06 20 05  16 29 20.765   +04 25 32.49  .23959 1.2212 145.5 22.2 2.00 128
2019 06 20 06  16 29 20.556   +04 27 41.77  .23985 1.2213 145.4 22.2 2.02 128
2019 06 20 07  16 29 20.350   +04 29 50.68  .24011 1.2214 145.4 22.2 2.04 128
2019 06 20 08  16 29 20.149   +04 31 59.24  .24038 1.2215 145.3 22.2 2.06 129
2019 06 20 09  16 29 19.952   +04 34 07.42  .24064 1.2217 145.3 22.2 2.09 129
2019 06 20 10  16 29 19.759   +04 36 15.25  .24090 1.2218 145.2 22.2 2.11 129
2019 06 20 11  16 29 19.571   +04 38 22.71  .24117 1.2219 145.2 22.2 2.13 129
2019 06 20 12  16 29 19.387   +04 40 29.81  .24143 1.2220 145.1 22.2 2.15 129
2019 06 20 13  16 29 19.207   +04 42 36.55  .24169 1.2222 145.1 22.2 2.17 129
2019 06 20 14  16 29 19.031   +04 44 42.92  .24196 1.2223 145.0 22.2 2.19 129
2019 06 20 15  16 29 18.860   +04 46 48.95  .24222 1.2224 145.0 22.2 2.21 129
2019 06 20 16  16 29 18.693   +04 48 54.61  .24249 1.2225 144.9 22.2 2.23 129
2019 06 20 17  16 29 18.530   +04 50 59.91  .24275 1.2227 144.8 22.2 2.26 129
2019 06 20 18  16 29 18.371   +04 53 04.86  .24302 1.2228 144.8 22.2 2.28 129
2019 06 20 19  16 29 18.217   +04 55 09.45  .24328 1.2229 144.7 22.2 2.30 130
2019 06 20 20  16 29 18.067   +04 57 13.69  .24355 1.2230 144.7 22.2 2.32 130
2019 06 20 21  16 29 17.921   +04 59 17.58  .24381 1.2232 144.6 22.2 2.34 130
2019 06 20 22  16 29 17.779   +05 01 21.11  .24408 1.2233 144.6 22.2 2.37 130
2019 06 20 23  16 29 17.642   +05 03 24.29  .24434 1.2234 144.5 22.2 2.39 130
2019 06 21 00  16 29 17.508   +05 05 27.12  .24461 1.2236 144.5 22.2 2.41 130
2019 06 21 01  16 29 17.379   +05 07 29.59  .24488 1.2237 144.4 22.2 2.43 130
2019 06 21 02  16 29 17.254   +05 09 31.72  .24514 1.2238 144.4 22.3 2.46 130
2019 06 21 03  16 29 17.134   +05 11 33.50  .24541 1.2239 144.3 22.3 2.48 130
2019 06 21 04  16 29 17.017   +05 13 34.93  .24568 1.2241 144.3 22.3 2.50 130
2019 06 21 05  16 29 16.905   +05 15 36.01  .24594 1.2242 144.2 22.3 2.52 130
2019 06 21 06  16 29 16.797   +05 17 36.75  .24621 1.2243 144.2 22.3 2.55 131
2019 06 21 07  16 29 16.693   +05 19 37.14  .24648 1.2244 144.1 22.3 2.57 131
2019 06 21 08  16 29 16.593   +05 21 37.19  .24674 1.2246 144.0 22.3 2.59 131
2019 06 21 09  16 29 16.498   +05 23 36.89  .24701 1.2247 144.0 22.3 2.62 131
2019 06 21 10  16 29 16.407   +05 25 36.25  .24728 1.2248 143.9 22.3 2.64 131
2019 06 21 11  16 29 16.319   +05 27 35.27  .24755 1.2249 143.9 22.3 2.66 131
2019 06 21 12  16 29 16.236   +05 29 33.94  .24782 1.2251 143.8 22.3 2.69 131
2019 06 21 13  16 29 16.158   +05 31 32.28  .24808 1.2252 143.8 22.3 2.71 131
2019 06 21 14  16 29 16.083   +05 33 30.27  .24835 1.2253 143.7 22.3 2.74 131
2019 06 21 15  16 29 16.012   +05 35 27.93  .24862 1.2254 143.7 22.3 2.76 131
2019 06 21 16  16 29 15.946   +05 37 25.25  .24889 1.2256 143.6 22.3 2.78 131
2019 06 21 17  16 29 15.884   +05 39 22.23  .24916 1.2257 143.6 22.3 2.81 131